Probability
0 0 0 0 0 0 0 0 0 0 0 0 0 0 0 0 0 0 0 0 0 0 0 0 0 0 0 0 0 0 0 0 0 0 0 0 0 0 0 0 0 0 0 0
0 0 0 0 0 0 0 0 0 0 0 0 0 0 0 0 0 0 0 0 0 0 0 0 0 0 0 0 0 0 0 0 0 0 0 0 0 0 0 0 0 0 0 0
0 0 0 0 0 0 0 0 0 0 0 0 0 0 0 0 0 0 0 0 0 0 0 0 0 0 0 0 0 0 0 0 0 0 0 0 0 0 0 0 0 0 0 0
0 0 0 0 0 0 0 0 0 0 0 0 0 0 0 0 0 0 0 0 0 0 0 0 0 0 0 0 0 0 0 0 0 0 0 0 0 0 0 0 0 0 0 0
0 0 0 0 0 0 0 0 0 0 0 0 0 0 0 0 0 0 0 0 0 0 0 0 0 0 0 0 0 0 0 0 0 0 0 0 0 0 0 0 0 0 0 0
0 0 0 0 0 0 0 0 0 0 0 0 0 0 0 0 0 0 0 0 0 0 0 0 0 0 0 0 0 0 0 0 0 0 0 0 0 0 0 0 0 0 0 0
0 0 0 0 0 0 0 0 0 0 0 0 0 0 0 0 0 0 0 0 0 0 0 0 0 0 0 0 0 0 0 0 0 0 0 0 0 0 0 0 0 0 0 0
0 0 0 0 0 0 0 0 0 0 0 0 0 0 0 0 0 0 0 0 0 0 0 0 0 0 0 0 0 0 0 0 0 0 0 0 0 0 0 0 0 0 0 0
0 0 0 0 0 0 0 0 0 0 0 0 0 0 0 0 0 0 0 0 0 0 0 0 0 0 0 0 0 0 0 0 0 0 0 0 0 0 0 0 0 0 0 0
0 0 0 0 0 0 0 0 0 0 0 0 0 0 0 0 0 0 0 0 0 0 0 0 0 0 0 0 0 0 0 0 0 0 0 0 0 0 0 0 0 0 0 0
0 0 0 0 0 0 0 0 0 0 0 0 0 0 0 0 0 0 0 0 0 0 0 0 0 0 0 0 0 0 0 0 0 0 0 0 0 0 0 0 0 0 0 0
0 0 0 0 0 0 0 0 0 0 0 0 0 0 0 0 0 0 0 0 0 0 0 0 0 0 0 0 0 0 0 0 0 0 0 0 0 0 0 0 0 0 0 0
0 0 0 0 0 0 0 0 0 0 0 0 0 0 0 0 0 0 0 0 0 0 0 0 0 0 0 0 0 0 0 0 0 0 0 0 0 0 0 0 0 0 0 0
0 0 0 0 0 0 0 0 0 0 0 0 0 0 0 0 0 0 0 0 0 0 0 0 0 0 0 0 0 0 0 0 0 0 0 0 0 0 0 0 0 0 0 0
0 0 0 0 0 0 0 0 0 0 0 0 0 0 0 0 0 0 0 0 0 0 0 0 0 0 0 0 0 0 0 0 0 0 0 0 0 0 0 0 0 0 0 0
0 0 0 0 0 0 0 0 0 0 0 0 0 0 0 0 0 0 0 0 0 0 0 0 0 0 0 0 0 0 0 0 0 0 0 0 0 0 0 0 0 0 0 0
0 0 0 0 0 0 0 0 0 0 0 0 0 0 0 0 0 0 0 0 0 0 0 0 0 0 0 0 0 0 0 0 0 0 0 0 0 0 0 0 0 0 0 0
0 0 0 0 0 0 0 0 0 0 0 0 0 0 0 0 0 0 0 0 0 0 0 0 0 0 0 0 0 0 0 0 0 0 0 0 0 0 0 0 0 0 0 0
0 0 0 0 0 0 0 0 0 0 0 0 0 0 0 0 0 0 0 0 0 0 0 0 0 0 0 0 0 0 0 0 0 0 0 0 0 0 0 0 0 0 0 0
0 0 0 0 0 0 0 0 0 0 0 0 0 0 0 0 0 0 0 0 0 0 0 0 0 0 0 0 0 0 0 0 0 0 0 0 0 0 0 0 0 0 0 0
0 0 0 0 0 0 0 0 0 0 0 0 0 0 0 0 0 0 0 0 0 0 0 0 0 0 0 0 0 0 0 0 0 0 0 0 0 0 0 0 0 0 0 0
0 0 0 0 0 0 0 0 0 0 0 0 0 0 0 0 0 0 0 0 0 0 0 0 0 0 0 0 0 0 0 0 0 0 0 0 0 0 0 0 0 0 0 0
0 0 0 0 0 0 0 0 0 0 0 0 0 0 0 0 0 0 0 0 0 0 0 0 0 0 0 0 0 0 0 0 0 0 0 0 0 0 0 0 0 0 0 0
0 0 0 0 0 0 0 0 0 0 0 0 0 0 0 0 0 0 0 0 0 0 0 0 0 0 0 0 0 0 0 0 0 0 0 0 0 0 0 0 0 0 0 0
0 0 0 0 0 0 0 0 0 0 0 0 0 0 0 0 0 0 0 0 0 0 0 0 0 0 0 0 0 0 0 0 0 0 0 0 0 0 0 0 0 0 0 0
0 0 0 0 0 0 0 0 0 0 0 0 0 0 0 0 0 0 0 0 0 0 0 0 0 0 0 0 0 0 0 0 0 0 0 0 0 0 0 0 0 0 0 0
0 0 0 0 0 0 0 0 0 0 0 0 0 0 0 0 0 0 0 0 0 0 0 0 0 0 0 0 0 0 0 0 0 0 0 0 0 0 0 0 0 0 0 0
Height
5801 5800 5799 5798 5798 5796 5795 5794 5792 5792 5791 5790 5788 5787 5786 5785 5784 5783 5783 5783 5782 5782 5782 5782 5782 5782 5782 5782 5782 5782 5783 5783 5782 5782 5782 5783 5783 5783 5784 5784 5784 5784 5785 5785
5795 5794 5793 5792 5791 5790 5789 5787 5785 5784 5784 5783 5781 5780 5779 5778 5777 5776 5775 5775 5775 5775 5775 5774 5774 5774 5774 5774 5774 5775 5775 5775 5775 5775 5776 5776 5776 5777 5777 5777 5778 5778 5779 5779
5789 5788 5786 5786 5786 5783 5782 5780 5779 5777 5777 5775 5773 5772 5771 5770 5769 5768 5768 5767 5767 5767 5767 5767 5767 5767 5767 5767 5767 5768 5768 5768 5768 5768 5769 5769 5769 5770 5770 5771 5771 5772 5772 5773
5781 5781 5780 5782 5778 5776 5775 5773 5771 5769 5768 5767 5766 5765 5764 5763 5761 5760 5760 5759 5759 5759 5760 5760 5760 5760 5760 5760 5760 5760 5760 5760 5760 5761 5761 5762 5762 5763 5763 5764 5765 5765 5766 5766
5774 5773 5772 5774 5771 5769 5767 5766 5764 5762 5761 5760 5758 5757 5756 5755 5753 5752 5752 5752 5751 5752 5752 5753 5752 5752 5753 5754 5754 5754 5753 5754 5754 5754 5755 5755 5756 5756 5756 5757 5758 5758 5759 5759
5767 5765 5765 5767 5764 5761 5760 5759 5757 5755 5753 5752 5751 5750 5749 5747 5746 5745 5744 5744 5744 5745 5745 5746 5745 5746 5746 5747 5747 5747 5747 5747 5747 5748 5748 5749 5749 5749 5749 5750 5750 5751 5752 5752
5760 5758 5758 5758 5756 5754 5753 5753 5750 5747 5746 5745 5743 5742 5741 5739 5738 5737 5737 5737 5737 5737 5738 5739 5739 5739 5739 5740 5740 5740 5740 5740 5740 5741 5741 5742 5742 5743 5743 5743 5743 5744 5744 5745
5753 5752 5753 5750 5748 5747 5745 5743 5741 5740 5739 5737 5736 5735 5733 5732 5731 5730 5730 5729 5730 5731 5731 5731 5732 5732 5732 5732 5733 5733 5733 5733 5733 5734 5734 5735 5735 5735 5735 5735 5736 5736 5737 5737
5747 5747 5745 5742 5740 5739 5737 5736 5734 5733 5731 5730 5728 5727 5726 5725 5724 5723 5723 5723 5723 5723 5724 5724 5725 5725 5725 5725 5725 5725 5726 5726 5726 5726 5727 5727 5727 5727 5727 5727 5728 5728 5728 5729
5738 5738 5736 5735 5733 5731 5730 5728 5727 5725 5724 5723 5721 5720 5719 5718 5717 5717 5716 5716 5716 5716 5716 5717 5717 5717 5718 5718 5718 5718 5718 5718 5718 5718 5719 5719 5719 5719 5719 5719 5719 5719 5719 5719
5730 5730 5728 5727 5725 5724 5722 5721 5719 5718 5717 5715 5714 5713 5712 5711 5710 5709 5709 5708 5708 5709 5709 5709 5709 5710 5710 5710 5710 5710 5710 5710 5710 5710 5710 5710 5710 5710 5710 5710 5710 5710 5710 5710
5722 5721 5720 5719 5717 5716 5714 5713 5712 5710 5709 5708 5706 5705 5704 5703 5703 5702 5701 5701 5701 5701 5701 5702 5702 5702 5702 5702 5702 5702 5702 5702 5702 5702 5702 5702 5702 5702 5701 5701 5701 5700 5700 5700
5712 5711 5711 5710 5709 5708 5706 5705 5704 5703 5702 5701 5699 5698 5697 5696 5696 5695 5694 5694 5694 5694 5694 5694 5694 5694 5694 5694 5694 5694 5693 5693 5693 5693 5693 5693 5693 5692 5692 5692 5691 5691 5690 5690
5704 5703 5702 5702 5701 5700 5698 5697 5696 5695 5694 5693 5692 5691 5690 5689 5688 5688 5687 5686 5686 5686 5685 5685 5685 5685 5685 5685 5685 5685 5684 5684 5684 5684 5684 5684 5683 5683 5683 5683 5682 5682 5681 5680
5695 5695 5694 5694 5693 5692 5690 5689 5688 5687 5686 5685 5684 5683 5682 5681 5680 5680 5679 5678 5678 5678 5677 5677 5677 5677 5676 5676 5676 5676 5675 5675 5674 5674 5674 5674 5673 5673 5673 5672 5672 5672 5671 5670
5688 5687 5686 5686 5685 5684 5682 5681 5680 5679 5678 5677 5676 5675 5673 5673 5672 5672 5671 5670 5670 5669 5669 5669 5668 5668 5667 5667 5667 5666 5666 5665 5665 5664 5664 5663 5663 5662 5662 5661 5661 5660 5660 5659
5679 5679 5678 5677 5677 5675 5674 5673 5672 5671 5670 5669 5668 5667 5665 5665 5664 5663 5662 5662 5661 5661 5660 5660 5659 5659 5658 5658 5657 5657 5656 5655 5655 5654 5653 5653 5652 5651 5650 5650 5649 5649 5648 5647
5671 5670 5670 5669 5669 5668 5667 5666 5665 5663 5662 5661 5660 5659 5658 5657 5656 5655 5654 5654 5653 5652 5651 5650 5649 5649 5648 5647 5647 5646 5645 5644 5643 5643 5642 5641 5640 5640 5639 5638 5637 5637 5636 5635
5663 5663 5662 5662 5661 5660 5659 5658 5657 5656 5654 5653 5652 5651 5650 5649 5648 5647 5646 5645 5644 5643 5642 5640 5640 5639 5638 5637 5636 5635 5634 5633 5632 5631 5630 5629 5628 5627 5626 5626 5625 5624 5624 5623
5656 5655 5655 5654 5653 5652 5651 5650 5649 5648 5647 5645 5644 5643 5642 5641 5640 5639 5637 5636 5635 5633 5632 5631 5630 5629 5628 5626 5625 5624 5623 5622 5621 5619 5618 5617 5616 5616 5615 5614 5613 5612 5612 5611
5649 5648 5647 5646 5645 5644 5643 5642 5641 5640 5638 5637 5636 5635 5634 5633 5631 5630 5629 5628 5626 5624 5623 5622 5621 5619 5618 5616 5615 5614 5612 5611 5610 5608 5607 5606 5605 5604 5603 5602 5602 5601 5600 5599
5641 5641 5640 5639 5638 5637 5636 5634 5633 5632 5630 5629 5628 5627 5626 5625 5623 5622 5621 5619 5618 5616 5614 5613 5611 5610 5608 5607 5605 5604 5602 5600 5599 5598 5596 5595 5594 5593 5592 5591 5590 5589 5588 5587
5634 5633 5633 5632 5631 5630 5628 5627 5626 5624 5623 5622 5621 5619 5618 5617 5615 5614 5613 5611 5609 5607 5606 5604 5602 5601 5599 5598 5596 5594 5592 5590 5589 5587 5586 5584 5583 5582 5581 5579 5578 5578 5577 5576
5627 5626 5625 5624 5623 5622 5621 5619 5618 5617 5615 5614 5613 5611 5610 5609 5607 5606 5604 5602 5601 5599 5597 5595 5593 5591 5590 5588 5586 5584 5582 5580 5578 5577 5575 5573 5572 5571 5570 5568 5567 5566 5566 5565
5619 5618 5617 5616 5615 5614 5613 5611 5610 5609 5608 5606 5605 5604 5602 5601 5600 5598 5596 5594 5592 5590 5588 5586 5584 5582 5580 5578 5576 5574 5572 5570 5568 5566 5565 5563 5562 5560 5559 5558 5556 5555 5555 5554
5610 5609 5608 5607 5606 5605 5604 5603 5602 5601 5600 5599 5597 5596 5594 5592 5591 5589 5587 5586 5584 5581 5579 5577 5575 5572 5570 5569 5566 5564 5562 5561 5559 5557 5555 5553 5552 5550 5549 5547 5546 5545 5544 5542
5600 5600 5599 5598 5597 5596 5594 5594 5593 5592 5591 5590 5589 5587 5585 5583 5582 5580 5578 5576 5574 5572 5570 5568 5566 5563 5561 5559 5557 5555 5553 5551 5549 5547 5545 5544 5542 5540 5538 5537 5535 5534 5533 5532
Wind_Speed
22 22 22 22 23 23 25 25 26 25 25 23 24 23 23 23 23 23 23 23 23 23 23 23 23 24 24 24 23 23 22 22 22 22 22 21 21 21 21 21 21 20 19 19
23 23 24 24 23 24 25 26 27 26 26 25 25 25 24 24 24 24 24 24 25 24 24 24 24 24 24 25 24 24 23 23 23 22 22 22 22 22 22 22 22 22 21 20
24 24 25 24 23 25 25 26 27 27 26 26 25 24 25 25 25 25 25 26 25 25 24 24 24 24 24 24 24 24 24 23 22 22 22 22 22 22 22 22 22 22 22 21
26 26 26 24 24 25 26 26 26 26 25 25 25 25 25 25 26 26 26 26 26 25 24 24 23 23 22 23 23 24 23 22 22 21 21 22 22 22 22 23 23 22 22 22
26 27 26 23 24 25 26 25 25 25 25 25 25 25 26 26 26 26 26 26 26 26 25 24 23 23 22 23 23 23 22 22 21 21 20 21 22 22 22 22 22 23 23 23
27 28 27 24 24 25 26 25 25 25 25 25 25 25 25 25 25 25 25 25 25 25 24 24 24 24 23 23 23 23 23 22 22 22 22 22 22 22 22 22 23 24 23 23
28 28 27 26 26 26 26 25 25 25 25 25 25 25 24 24 24 24 24 24 24 24 23 24 24 24 24 24 24 23 23 23 23 23 22 22 23 23 23 23 23 23 24 24
28 28 27 27 27 26 26 25 25 25 25 25 25 24 24 23 24 24 24 24 24 24 24 24 24 23 24 24 24 24 24 24 23 23 24 24 24 24 25 24 24 24 24 25
28 28 28 27 27 27 27 26 25 25 25 25 25 25 24 23 24 24 24 24 25 25 24 24 24 23 23 24 25 25 24 24 25 25 25 26 26 26 26 26 26 26 26 27
29 28 28 28 28 27 27 26 26 26 25 25 25 24 24 25 25 25 25 25 25 25 25 25 25 24 24 25 25 25 25 25 25 26 26 27 27 27 27 27 27 28 28 29
30 29 29 28 28 28 28 27 27 27 26 25 25 25 25 25 25 24 24 25 25 24 25 25 25 25 25 25 25 26 26 27 27 27 27 27 28 28 28 28 28 28 29 29
30 29 29 28 28 28 28 28 28 27 26 26 26 25 25 25 24 24 24 24 25 25 26 26 25 25 26 26 25 26 26 27 28 28 28 28 28 29 29 29 29 29 29 29
30 30 29 28 28 28 27 27 27 26 26 26 25 25 25 24 24 24 24 24 25 25 26 26 26 26 26 26 26 26 26 27 28 29 29 29 30 29 30 30 30 29 29 30
30 29 28 27 27 27 27 27 27 26 26 26 26 26 26 25 24 24 24 24 25 26 26 26 26 27 27 27 27 28 28 28 28 29 30 30 30 29 30 30 30 31 31 32
28 28 28 26 26 26 26 26 26 26 26 26 27 26 26 26 26 26 25 25 26 26 26 27 27 27 28 28 28 28 29 29 29 30 30 30 30 31 31 31 31 32 32 33
28 27 27 26 26 26 26 25 25 25 26 26 26 26 26 26 27 27 27 27 27 28 28 28 28 28 28 28 29 29 29 29 30 30 31 32 32 32 33 32 32 33 33 34
27 27 26 26 25 25 25 26 25 25 25 25 26 26 26 26 26 27 27 28 28 28 29 29 29 30 30 30 30 30 30 30 31 32 33 33 33 34 34 34 34 34 35 35
26 26 26 25 24 24 25 25 25 25 25 25 25 25 26 25 26 27 28 28 28 28 29 30 30 31 31 32 32 32 32 32 32 33 33 34 34 35 35 35 35 35 36 36
25 25 25 25 25 25 24 24 24 25 25 26 26 26 26 27 27 27 28 28 29 28 29 29 30 31 31 32 32 32 32 33 33 33 34 35 35 35 35 35 35 35 36 36
25 25 25 25 25 25 25 24 25 25 25 26 26 26 26 27 27 27 28 29 28 28 29 30 30 31 31 32 32 32 33 33 33 33 34 34 35 35 35 35 35 35 36 36
24 24 25 25 24 24 24 25 25 25 25 25 25 25 26 26 27 27 28 28 28 29 29 30 30 30 31 30 31 31 32 32 32 33 33 33 34 34 34 34 35 35 36 36
22 23 23 24 24 23 24 24 24 24 24 24 25 25 25 25 26 27 28 28 29 29 29 29 29 29 29 30 30 30 31 32 32 32 32 33 33 33 33 34 34 34 34 34
23 23 23 24 25 24 24 24 25 25 25 25 25 25 25 26 26 27 27 27 28 28 29 29 29 29 29 30 30 31 31 32 32 32 33 33 33 33 33 33 33 33 33 33
24 24 24 25 26 26 25 26 26 25 25 26 26 25 25 25 26 26 26 26 27 28 28 29 29 30 30 31 31 31 32 32 32 32 32 32 32 32 32 32 32 33 33 33
27 26 26 26 26 26 26 26 26 26 26 26 25 25 26 26 26 26 27 27 27 28 28 29 30 31 31 31 32 32 31 31 30 30 30 30 30 30 30 31 31 32 33 33
28 28 28 28 28 28 28 28 27 27 26 26 26 27 27 27 28 28 29 29 29 29 29 29 30 30 31 31 30 30 30 30 30 29 29 29 29 30 30 30 30 31 31 32
30 30 30 30 30 30 29 29 28 28 28 28 27 28 28 29 29 29 29 29 29 29 29 29 29 29 30 30 30 30 30 30 29 29 29 29 30 30 30 30 30 30 31 30
Wind_Direction
278 279 279 278 279 279 281 283 284 287 288 289 285 283 282 279 276 275 272 271 270 270 272 272 269 267 267 267 267 265 267 269 268 266 265 266 266 266 267 267 266 265 265 266
279 279 280 280 280 279 280 282 283 285 287 288 287 284 282 279 276 274 272 270 269 271 271 271 269 268 267 267 266 267 267 268 267 265 265 265 265 265 266 268 267 265 265 265
279 280 280 281 283 282 281 283 285 286 286 285 283 282 280 278 275 274 273 271 269 270 271 271 269 268 267 265 265 266 268 269 266 266 265 265 265 264 265 265 266 264 263 264
280 281 281 286 285 284 284 284 284 283 283 282 281 281 280 279 278 276 273 271 269 268 269 269 268 266 265 263 264 265 267 268 265 265 265 265 267 267 265 264 264 264 263 264
281 282 284 286 287 286 285 285 284 283 282 281 281 281 280 280 280 277 273 271 271 270 268 268 267 265 264 265 265 266 266 267 267 266 266 267 269 268 267 266 264 265 266 264
282 283 286 288 286 287 287 285 284 282 281 281 281 281 281 279 277 275 273 271 271 270 270 269 267 266 266 267 267 267 267 267 267 265 266 267 267 267 268 269 267 266 267 265
280 282 285 287 286 287 286 286 282 280 280 281 282 282 281 278 275 272 273 271 271 270 270 269 268 267 267 267 268 268 269 269 267 266 265 266 267 267 269 269 268 268 267 266
281 282 284 285 285 284 285 284 283 282 281 282 281 283 282 280 275 273 272 270 270 269 268 268 269 269 269 269 268 269 269 269 268 267 266 266 267 269 269 268 268 267 266 266
281 283 284 284 283 283 284 284 284 284 284 283 281 282 281 280 277 274 273 271 270 269 267 268 269 270 271 270 269 268 268 268 268 267 267 267 268 269 270 270 269 268 268 267
280 281 281 282 281 281 282 283 283 284 283 283 283 282 280 280 277 275 273 272 270 269 268 268 269 270 270 270 270 269 268 268 269 268 268 268 268 269 270 270 270 270 269 269
280 281 280 281 281 280 280 280 280 281 282 281 280 280 279 279 277 276 275 273 270 269 269 268 269 270 270 271 271 270 270 270 270 270 269 269 268 269 269 270 269 270 271 271
281 280 278 279 279 280 279 280 281 281 280 279 278 278 279 279 277 275 275 274 271 270 270 269 269 269 270 271 270 270 270 269 269 270 271 270 269 269 269 270 270 271 271 270
279 279 278 279 279 280 280 279 280 280 279 278 278 278 279 279 276 276 276 275 273 272 271 270 270 270 270 271 271 271 272 270 269 269 270 271 270 270 270 270 271 272 272 272
277 278 279 280 279 280 281 279 279 279 280 280 279 278 278 276 275 275 275 274 274 274 272 271 270 269 270 272 273 274 274 273 272 271 271 272 273 270 269 269 271 272 273 273
276 277 278 278 279 281 283 281 279 279 279 280 280 282 279 275 273 274 275 275 275 274 273 272 271 271 271 271 273 275 275 274 274 274 274 273 273 272 271 271 272 273 273 273
276 277 278 278 279 281 281 281 280 280 280 280 281 282 281 276 274 274 275 276 275 274 273 273 273 273 273 274 275 276 275 274 275 276 276 275 274 273 273 273 273 273 274 274
276 275 275 277 279 279 279 280 280 281 281 281 281 280 280 278 276 275 276 276 276 275 275 275 275 274 275 276 275 275 275 275 276 277 277 276 275 274 274 274 274 273 274 275
277 277 276 276 277 279 280 281 281 281 281 284 283 283 282 280 279 278 277 277 277 277 277 277 276 276 276 277 276 276 277 277 276 277 277 276 275 275 275 275 274 274 273 274
277 276 277 277 278 280 281 281 281 281 281 282 281 280 280 280 281 280 278 279 280 280 279 278 277 278 278 278 278 279 280 279 277 277 278 278 277 276 276 275 274 274 275 275
278 276 276 278 279 280 281 281 281 282 282 281 280 279 279 280 281 282 281 281 282 281 281 280 279 280 281 280 280 281 281 280 278 279 279 279 278 276 275 275 275 275 276 276
280 278 278 278 280 281 282 282 283 283 284 283 282 281 280 281 282 283 283 283 282 282 283 284 284 284 284 283 282 282 283 282 280 280 280 280 280 279 278 277 276 276 277 277
281 280 280 281 281 281 282 284 284 285 285 285 284 284 283 284 284 285 286 285 284 284 285 285 285 285 285 285 285 285 285 284 282 282 282 281 281 281 279 278 277 277 277 277
279 280 280 281 281 282 282 284 285 286 284 285 285 286 286 286 286 286 286 286 286 286 286 286 286 286 286 287 287 288 288 286 284 284 283 283 282 281 279 278 277 276 277 277
277 278 279 280 280 281 282 284 284 285 284 284 285 286 287 288 289 289 288 287 288 288 288 288 287 286 286 287 288 288 289 288 287 286 285 284 282 280 280 279 278 276 276 276
277 279 281 281 281 281 282 283 283 283 283 283 284 285 286 288 289 290 289 289 290 291 290 288 289 289 288 289 290 289 290 289 288 287 286 285 284 283 282 281 279 278 277 277
275 277 279 280 281 281 281 281 280 280 281 282 283 284 286 288 288 289 289 289 289 290 291 291 290 290 289 290 290 290 291 290 289 288 287 287 287 286 285 283 281 280 279 279
274 276 277 279 280 280 279 280 278 279 279 280 282 285 286 287 288 288 289 289 290 290 291 291 292 292 290 290 290 290 290 289 288 288 287 288 288 288 287 285 284 283 281 280